[[{"header":{"parameterUnit":"m.s-1","parameterCategory":1,"la1":30.2991,"la2":30.254,"lo1":-89.0895,"lo2":-89.0444,"dy":0.0017,"dx":0.0017,"nx":28,"ny":28,"refTime":"2025-03-26T03:00:00:Z","depth":0,"parameterNumber":2,"parameterNumberName":"U-component_of_WINDS"},"data":[0,0,0,0,0,0,0,0,0,0,0,0,0,0,0,0,0,0,0,0,0,0,0,0,0,0,0,0,0,0,0,0,0,0,0,0,0,0,0,0,0,0,0,0,0,0,0,0,0,0,0,0,0,0,0,0,0,0,1.414,1.4141,0,1.4207,1.4207,1.4208,1.4216,1.4215,1.4214,1.4214,1.4282,1.4285,1.4287,0,0,0,0,0,0,0,0,0,0,0,0,0,1.402,1.4022,1.414,1.4141,1.4141,1.4207,1.4207,1.4208,1.4216,1.4215,1.4214,1.4214,1.4281,1.4284,1.4287,0,0,0,0,0,0,0,0,0,0,0,0,0,1.4078,1.4023,1.414,1.4153,1.4155,1.4206,1.4207,1.4209,1.4216,1.4215,1.4214,1.4213,1.428,1.4284,1.4288,1.433,0,0,1.4299,1.43,0,0,0,0,0,0,0,0,1.4075,1.4082,1.415,1.4152,1.4154,1.4202,1.419,1.4249,1.4216,1.4193,1.4214,1.4213,1.4256,1.4262,1.4277,1.4333,1.4336,1.4299,1.4301,1.4303,1.4304,0,0,0,0,0,0,0,1.4071,1.408,1.4166,1.4151,1.4154,1.4156,1.4163,1.4202,1.4229,1.4195,1.4196,1.4203,1.4257,1.4273,1.4278,1.4337,1.4299,1.4302,1.4305,1.4306,1.4435,1.4436,0,0,0,0,0,0,1.4064,1.4076,1.4164,1.4168,1.4111,1.4159,1.4167,1.4188,1.4229,1.4234,1.4204,1.4203,1.4267,1.4274,1.4281,1.4335,1.4303,1.4306,1.4308,1.4434,1.4435,1.4437,0,0,0,0,0,0,1.4061,1.4072,1.4161,1.4122,1.4134,1.4162,1.4185,1.4189,1.4205,1.4236,1.4241,1.4215,1.4267,1.4276,1.4318,1.4337,1.4308,1.4311,1.4432,1.4434,1.4436,1.4442,0,0,0,0,0,0,1.4058,1.4071,1.4087,1.4123,1.4136,1.4197,1.4186,1.4192,1.4212,1.4211,1.4248,1.4253,1.4267,1.4313,1.4322,1.4342,1.4314,1.4431,1.4433,1.4435,1.444,1.4444,1.4447,0,0,0,0,0,1.4054,1.4085,1.4088,1.4098,1.4157,1.4198,1.4206,1.4222,1.4213,1.423,1.425,1.4252,1.4334,1.4317,1.4328,1.4348,1.443,1.4432,1.4435,1.4439,1.4443,1.4447,0,0,0,0,0,0,1.405,1.409,1.4093,1.4137,1.4165,1.42,1.4221,1.4225,1.4255,1.4254,1.4272,1.428,1.4323,1.434,1.4321,1.4393,1.4381,1.4386,1.438,1.4385,1.4388,1.4383,1.4317,0,0,0,0,0,1.4055,1.4085,1.4119,1.4154,1.4168,1.4192,1.4211,1.4221,1.425,1.4261,1.4284,1.4312,1.4345,1.4366,1.4397,1.4443,1.4452,1.4463,1.4466,1.4469,1.4473,1.45,1.4506,1.4446,1.4446,1.4446,0,0,1.4064,1.409,1.4108,1.4154,1.4177,1.4208,1.4202,1.4235,1.4259,1.4266,1.4308,1.4327,1.4359,1.4405,1.4426,1.442,1.4492,1.4472,1.4474,1.4477,1.4504,1.4509,1.4514,1.4447,1.4447,1.4447,0,0,1.4097,1.4119,1.4152,1.4175,1.4209,1.4226,1.4234,1.4269,1.4282,1.4324,1.4331,1.436,1.4415,1.4439,1.4458,1.4503,1.4506,1.4512,1.453,1.4556,1.4561,1.4565,1.4583,1.4588,1.4516,1.4516,1.4517,0,1.4105,1.4152,1.4169,1.4203,1.4224,1.4232,1.4267,1.4288,1.4331,1.4345,1.4339,1.441,1.4432,1.4484,1.4495,1.451,1.452,1.4508,1.4559,1.4564,1.4568,1.4585,1.4591,1.4517,1.4517,1.4517,1.4517,0,1.416,1.4194,1.4216,1.4258,1.4282,1.4315,1.4338,1.436,1.4368,1.4386,1.443,1.4458,1.4496,1.4509,1.4517,1.4562,1.4558,1.4555,1.4543,1.4574,1.459,1.4596,1.4518,1.4518,1.4518,1.4517,0,0,1.4192,1.4244,1.4252,1.4272,1.4311,1.4338,1.4373,1.441,1.4429,1.4459,1.449,1.4537,1.4535,1.4557,1.4568,1.4591,1.4627,1.4586,1.4587,1.4593,1.4681,1.4683,1.469,1.463,1.4631,1.4632,1.4678,0,1.4231,1.4293,1.431,1.4363,1.4395,1.4405,1.4436,1.4463,1.4481,1.4511,1.4531,1.4565,1.4559,1.4573,1.4596,1.4618,1.4645,1.4615,1.4659,1.466,1.4651,1.4698,1.47,1.4743,1.4685,1.4686,1.4686,0,1.4283,1.4315,1.4372,1.4409,1.4423,1.445,1.4487,1.4515,1.4548,1.4559,1.4585,1.4594,1.4632,1.4619,1.4672,1.4651,1.4671,1.4684,1.4686,1.4691,1.4675,1.4705,1.4756,1.4763,1.4696,1.4695,1.4695,0,1.4302,1.4359,1.4401,1.4417,1.4461,1.448,1.45,1.4531,1.4553,1.4586,1.4601,1.4637,1.4657,1.4686,1.4705,1.4693,1.4758,1.4745,1.4769,1.4768,1.4782,1.478,1.4837,1.4793,1.4793,1.4793,1.4793,0,1.4344,1.4378,1.441,1.4436,1.4475,1.4495,1.4533,1.4553,1.4582,1.4612,1.4623,1.4651,1.4675,1.4707,1.4722,1.4765,1.4774,1.4785,1.4789,1.4784,1.4783,1.4797,1.4795,1.4795,1.4795,1.4794,1.4794,0,1.4371,1.4394,1.444,1.4478,1.4489,1.4516,1.455,1.4576,1.4594,1.4633,1.4643,1.4672,1.4711,1.4733,1.4781,1.4792,1.484,1.4842,1.4829,1.483,1.4853,1.4851,1.4921,1.4932,1.488,1.4881,1.4881,0,1.4396,1.4423,1.4465,1.4486,1.4506,1.454,1.4563,1.4584,1.4608,1.4648,1.4669,1.4709,1.4741,1.4802,1.4828,1.4866,1.4869,1.4891,1.4875,1.487,1.4871,1.4869,1.4872,1.4894,1.4895,1.4895,1.4895,0,1.4439,1.4449,1.4482,1.452,1.4547,1.4577,1.4607,1.4624,1.4651,1.4677,1.4717,1.4742,1.4792,1.4831,1.4871,1.4892,1.4899,1.49,1.4908,1.4904,1.4895,1.4901,1.4837,1.4899,1.4898,1.4898,1.4898,1.4898,1.4467,1.4492,1.4526,1.4562,1.4588,1.4616,1.4643,1.4665,1.4699,1.4741,1.4752,1.4794,1.4828,1.4882,1.4904,1.4938,1.4934,1.4945,1.4948,1.495,1.4951,1.489,1.4945,1.4945,1.4945,1.4945,1.4945,0,1.4511,1.4534,1.4567,1.461,1.4639,1.4643,1.4677,1.4701,1.4738,1.4769,1.4801,1.4848,1.4886,1.4916,1.4956,1.4978,1.4982,1.4987,1.4986,1.4991,1.4952,1.4942,1.4983,1.4983,1.4983,1.4983,1.4983,1.4983,1.4537,1.458,1.4595,1.4651,1.4674,1.4715,1.4735,1.4761,1.4786,1.4838,1.487,1.4889,1.492,1.4963,1.4999,1.5007,1.5021,1.5027,1.5035,1.4998,1.4994,1.499,1.498,1.503,1.503,1.5072,1.5072,1.5073]},{"header":{"parameterUnit":"m.s-1","parameterCategory":1,"la1":30.2991,"la2":30.254,"lo1":-89.0895,"lo2":-89.0444,"dy":0.0017,"dx":0.0017,"nx":28,"ny":28,"refTime":"2025-03-26T03:00:00:Z","depth":0,"parameterNumber":3,"parameterNumberName":"V-component_of_WINDS"},"data":[0,0,0,0,0,0,0,0,0,0,0,0,0,0,0,0,0,0,0,0,0,0,0,0,0,0,0,0,0,0,0,0,0,0,0,0,0,0,0,0,0,0,0,0,0,0,0,0,0,0,0,0,0,0,0,0,0,0,-1.4658,-1.4658,0,-1.4695,-1.4695,-1.4696,-1.4708,-1.4707,-1.4707,-1.4707,-1.4746,-1.4747,-1.4748,0,0,0,0,0,0,0,0,0,0,0,0,0,-1.4599,-1.46,-1.4658,-1.4659,-1.4659,-1.4695,-1.4695,-1.4696,-1.4708,-1.4707,-1.4707,-1.4707,-1.4745,-1.4747,-1.4748,0,0,0,0,0,0,0,0,0,0,0,0,0,-1.4629,-1.4601,-1.4658,-1.4669,-1.4671,-1.4695,-1.4695,-1.4696,-1.4708,-1.4707,-1.4707,-1.4707,-1.4745,-1.4746,-1.4748,-1.4764,0,0,-1.4754,-1.4754,0,0,0,0,0,0,0,0,-1.4628,-1.4631,-1.4667,-1.4669,-1.467,-1.4696,-1.4689,-1.4719,-1.4708,-1.4694,-1.4707,-1.4707,-1.4729,-1.4732,-1.474,-1.4766,-1.4767,-1.4754,-1.4755,-1.4756,-1.4756,0,0,0,0,0,0,0,-1.4626,-1.463,-1.4673,-1.4668,-1.4669,-1.4673,-1.4677,-1.4694,-1.4713,-1.4695,-1.4696,-1.47,-1.473,-1.4738,-1.4741,-1.4768,-1.4754,-1.4755,-1.4756,-1.4757,-1.4808,-1.4809,0,0,0,0,0,0,-1.4621,-1.4628,-1.4671,-1.4674,-1.4648,-1.4674,-1.4678,-1.4688,-1.4712,-1.4716,-1.47,-1.47,-1.4735,-1.4739,-1.4742,-1.4762,-1.4756,-1.4757,-1.4758,-1.4808,-1.4809,-1.4809,0,0,0,0,0,0,-1.462,-1.4625,-1.467,-1.4651,-1.4657,-1.4675,-1.4686,-1.4689,-1.4697,-1.4716,-1.472,-1.4705,-1.4735,-1.474,-1.4758,-1.4764,-1.4758,-1.476,-1.4808,-1.4808,-1.4809,-1.4802,0,0,0,0,0,0,-1.4618,-1.4625,-1.4631,-1.4651,-1.4658,-1.4685,-1.4686,-1.469,-1.47,-1.4701,-1.4722,-1.4725,-1.4735,-1.4756,-1.476,-1.4766,-1.4761,-1.4807,-1.4808,-1.4809,-1.4802,-1.4802,-1.4802,0,0,0,0,0,-1.4616,-1.4627,-1.4631,-1.4636,-1.4666,-1.4685,-1.4689,-1.4701,-1.47,-1.4706,-1.4719,-1.4724,-1.4762,-1.4757,-1.4763,-1.4769,-1.4807,-1.4808,-1.4808,-1.4802,-1.4802,-1.4802,0,0,0,0,0,0,-1.4607,-1.463,-1.4634,-1.4652,-1.4667,-1.4687,-1.4696,-1.4701,-1.4716,-1.4716,-1.473,-1.4735,-1.4752,-1.4763,-1.4757,-1.4785,-1.4785,-1.4787,-1.4778,-1.4779,-1.4779,-1.4776,-1.4762,0,0,0,0,0,-1.4607,-1.4621,-1.4641,-1.4655,-1.4662,-1.4677,-1.4686,-1.4694,-1.471,-1.4716,-1.473,-1.4745,-1.476,-1.477,-1.4785,-1.4803,-1.4808,-1.481,-1.4811,-1.4811,-1.4812,-1.4822,-1.4823,-1.4811,-1.4811,-1.4811,0,0,-1.4608,-1.4622,-1.463,-1.4653,-1.4665,-1.4679,-1.4682,-1.4697,-1.4708,-1.4718,-1.4736,-1.4747,-1.4765,-1.4783,-1.4792,-1.4792,-1.4817,-1.4812,-1.4812,-1.4813,-1.4823,-1.4824,-1.4825,-1.4812,-1.4812,-1.4811,0,0,-1.4615,-1.4628,-1.4641,-1.4652,-1.467,-1.4681,-1.4684,-1.4704,-1.4711,-1.4729,-1.4738,-1.4751,-1.4777,-1.4789,-1.4799,-1.4811,-1.4817,-1.4816,-1.4818,-1.4827,-1.4828,-1.4829,-1.4833,-1.4835,-1.4817,-1.4817,-1.4817,0,-1.4614,-1.4635,-1.4647,-1.4661,-1.4671,-1.4681,-1.4694,-1.4705,-1.4727,-1.4734,-1.4734,-1.4767,-1.478,-1.4801,-1.4804,-1.4812,-1.4816,-1.4814,-1.4827,-1.4828,-1.4829,-1.4833,-1.4835,-1.4817,-1.4817,-1.4817,-1.4817,0,-1.4631,-1.4646,-1.4654,-1.4675,-1.4686,-1.47,-1.4714,-1.4724,-1.4731,-1.4741,-1.476,-1.4776,-1.4794,-1.48,-1.4807,-1.4822,-1.4822,-1.4824,-1.4824,-1.483,-1.4834,-1.4836,-1.4817,-1.4817,-1.4817,-1.4817,0,0,-1.4634,-1.4661,-1.4664,-1.4674,-1.4694,-1.4706,-1.472,-1.4738,-1.4746,-1.4761,-1.4773,-1.4795,-1.4798,-1.4809,-1.4818,-1.4826,-1.4835,-1.4828,-1.4828,-1.4828,-1.4852,-1.485,-1.4852,-1.4839,-1.4839,-1.4839,-1.4851,0,-1.4644,-1.467,-1.4681,-1.4701,-1.4715,-1.4724,-1.4737,-1.4751,-1.4761,-1.4774,-1.4786,-1.4801,-1.4803,-1.481,-1.4819,-1.4832,-1.484,-1.4831,-1.485,-1.4851,-1.4845,-1.4854,-1.4852,-1.4862,-1.4853,-1.4853,-1.4853,0,-1.466,-1.4674,-1.4696,-1.4714,-1.472,-1.4731,-1.4748,-1.4761,-1.4777,-1.4784,-1.4796,-1.4805,-1.482,-1.4819,-1.4841,-1.4835,-1.4844,-1.4851,-1.4852,-1.4854,-1.4852,-1.4856,-1.4865,-1.4867,-1.4856,-1.4856,-1.4855,0,-1.4659,-1.4684,-1.47,-1.4708,-1.473,-1.4738,-1.4748,-1.4764,-1.4774,-1.4789,-1.4795,-1.4812,-1.4822,-1.4835,-1.4847,-1.4846,-1.4868,-1.4868,-1.4874,-1.4874,-1.4878,-1.4878,-1.4889,-1.4884,-1.4884,-1.4884,-1.4884,0,-1.4669,-1.4682,-1.47,-1.471,-1.4725,-1.4737,-1.4752,-1.4762,-1.4777,-1.4789,-1.4799,-1.481,-1.4826,-1.484,-1.485,-1.4866,-1.4871,-1.4877,-1.4879,-1.4876,-1.4875,-1.4881,-1.4881,-1.4885,-1.4885,-1.4885,-1.4884,0,-1.4671,-1.4684,-1.4702,-1.4721,-1.4726,-1.4736,-1.4753,-1.4763,-1.4774,-1.479,-1.4794,-1.4811,-1.4827,-1.4841,-1.4863,-1.487,-1.4887,-1.489,-1.4881,-1.4882,-1.4888,-1.4887,-1.4903,-1.4906,-1.49,-1.49,-1.49,0,-1.4676,-1.4686,-1.4706,-1.4715,-1.4724,-1.4738,-1.4748,-1.4762,-1.4772,-1.4791,-1.4799,-1.4816,-1.483,-1.4856,-1.4871,-1.4888,-1.4891,-1.4896,-1.4894,-1.489,-1.4891,-1.489,-1.4891,-1.4896,-1.4896,-1.4896,-1.4896,0,-1.4684,-1.469,-1.4704,-1.472,-1.4731,-1.4745,-1.4758,-1.4765,-1.4781,-1.4792,-1.4809,-1.482,-1.4842,-1.4859,-1.4877,-1.4888,-1.4894,-1.4896,-1.4898,-1.4895,-1.4889,-1.4892,-1.4881,-1.4896,-1.4896,-1.4896,-1.4896,-1.4896,-1.4688,-1.4697,-1.4712,-1.4727,-1.4739,-1.4752,-1.4762,-1.4774,-1.4788,-1.4806,-1.4813,-1.483,-1.4847,-1.4872,-1.4883,-1.4897,-1.4898,-1.4901,-1.4902,-1.4902,-1.4902,-1.4887,-1.49,-1.49,-1.49,-1.49,-1.49,0,-1.4696,-1.4706,-1.472,-1.4738,-1.475,-1.4755,-1.4771,-1.478,-1.4795,-1.481,-1.4823,-1.4843,-1.4859,-1.4875,-1.4892,-1.49,-1.4904,-1.4904,-1.4904,-1.4906,-1.49,-1.4896,-1.4901,-1.4901,-1.4901,-1.4901,-1.4901,-1.4901,-1.4701,-1.4717,-1.4725,-1.4746,-1.4757,-1.4773,-1.4781,-1.4793,-1.4805,-1.4825,-1.4839,-1.4849,-1.4864,-1.4883,-1.4898,-1.4902,-1.4908,-1.4908,-1.4913,-1.4907,-1.4906,-1.4906,-1.4903,-1.4909,-1.4909,-1.4918,-1.4918,-1.4918]}]]